Flag for Canada Weather past 2 weeks in Cranbrook, British Columbia, Canada

Now
79 °F

Broken clouds.


Feels Like: 80 °F
Forecast: 69 / 86 °F
Wind: 3 mph from North

Location: Cranbrook

Current Time: Jun 29, 2015 at 5:44:05 PM

Latest Report: Jun 29, 2015 at 5:00 PM


Visibility: 25 mi

Pressure: 29.94 "Hg

Humidity: 54%

Dew point: 61 °F

Location of CranbrookLocation

Historic Weather in Cranbrook — Graph

°F

Cranbrook temperature yesterday

Maximum temperature yesterday: 97 °F (at 3:53 PM)
Minimum temperature yesterday: 63 °F (at 6:00 AM)
Average temperature yesterday: 84 °F

Past Weeks' High & Low Weather Summary

 TemperatureHumidityPressure
High97 °F (Jun 27, 4:00 PM)94% (Jun 17, 11:00 AM)30.22 "Hg (Jun 17, 11:00 AM)
Low45 °F (Jun 15, 6:00 AM)13% (Jun 26, 7:00 PM)29.80 "Hg (Jun 19, 11:00 AM)
Average67 °F47%29.99 "Hg
* Reported Jun 14 4:00 PM — Jun 29 4:00 PM, Cranbrook, Weather by CustomWeather, © 2015

Note: Actual official high and low records may vary slightly from our data, if they occured in-between our weather recording intervals... More about our weather records

Advertising

Cranbrook weather history for previous 24 hours

 ConditionsComfort  
Time TempWeatherWind HumidityBarometerVisibility
4:00 PM
Mon, Jun 29
77 °FPartly sunny.6 mph61%29.96 "Hg20 mi
3:00 PM84 °FCloudy.No wind37%29.94 "Hg20 mi
2:00 PM81 °FBroken clouds.2 mph42%29.96 "Hg20 mi
1:00 PM77 °FBroken clouds.5 mph47%29.98 "Hg20 mi
12:00 PM72 °FLight rain. Mostly cloudy.2 mph65%30.01 "Hg20 mi
11:00 AM72 °FLight rain. Mostly cloudy.3 mph61%29.99 "Hg20 mi
10:00 AM72 °FMostly cloudy.8 mph57%30.01 "Hg25 mi
9:00 AM72 °FMore clouds than sun.2 mph53%29.97 "Hg25 mi
8:00 AM70 °FPartly sunny.No wind53%29.96 "Hg25 mi
7:00 AM70 °FPassing clouds.5 mph50%29.93 "Hg25 mi
6:00 AM72 °FPassing clouds.7 mph47%29.92 "Hg25 mi
5:00 AM72 °FPassing clouds.2 mph47%29.91 "Hg25 mi
4:00 AM73 °FPassing clouds.5 mph44%29.90 "Hg25 mi
3:00 AM73 °FPartly cloudy.5 mph44%29.92 "Hg20 mi
2:00 AM73 °FPartly cloudy.5 mph44%29.91 "Hg25 mi
1:00 AM75 °FPartly cloudy.5 mph44%29.90 "Hg25 mi
12:00 AM79 °FPassing clouds.3 mph39%29.89 "Hg25 mi
11:00 PM
Sun, Jun 28
82 °FBroken clouds.7 mph37%29.89 "Hg25 mi
10:00 PM84 °FBroken clouds.7 mph40%29.88 "Hg25 mi
9:00 PM90 °FBroken clouds.5 mph31%29.88 "Hg25 mi
8:00 PM93 °FPartly sunny.6 mph24%29.88 "Hg25 mi
7:00 PM97 °FPartly sunny.5 mph17%29.88 "Hg25 mi
6:00 PM97 °FBroken clouds.7 mph17%29.90 "Hg25 mi
5:00 PM97 °FBroken clouds.5 mph16%29.91 "Hg25 mi
Weather by CustomWeather, © 2015

See weather overviewHow to use our weather pages